Volver al catálogo

ICEYE-X79

ActivoCienciaSSO
NORAD 69870·PAYLOAD·🇨🇦 Canada

Lanzado Jul 7, 2026 desde Vandenberg Space Force Base

Loading…

Próximos Pases (próximas 24 horas)

TLE

ActualizadoSource: Space-Track

Época: Sep 14, 2026, 23:13 UTC

1 69870U 26156B   26257.96793194  .00001979  00000-0  20129-3 0  9993
2 69870  97.7437 157.2345 0005224 283.0015  77.0620 14.91876244 10388

Sigue ICEYE-X79 en tiempo real con AllMySat

Download on the App Store